Weather in Colon

Panama     9°21′27″N   79°54′05″W
temp.,
°C
wind,
m/s
gust,
m/s
humid.,
%
clouds,
%
prec.,
mm/h
press.,
hPa
HPBL,
m
15 june, tue
tue1501:00+24se2395100 0.0 1013105
04:00+23se249597 0.0 1012142
07:00+24se269281 0.0 1013243
10:00+28sse357291 0.0 1014695
13:00+31se2461100 0.0 10121170
16:00+29e2368100 0.1 1010735
19:00+25ese2589100 0.7 1012184
22:00+25se2793100 0.0 1013233
16 june, wed
wed1601:00+24se239473 0.0 1011108
04:00+23se249564 0.0 1010120
07:00+24se249332 0.0 1012163
10:00+29sse226997 0.0 1012909
13:00+29nw227654 1.8 1010419
16:00+27nw128497 5.4 1009252
19:00+26ese118867 6.1 1010106
22:00+24ese22936 0.7 101274
17 june, thu
thu1701:00+24se249622 1.6 1011120
04:00+23se239666 0.1 1010107
07:00+24se249497 0.2 1011137
10:00+28se2380100 2.3 1012489
13:00+29se017283 5.2 1010821
16:00+28n1181100 2.9 1008511
19:00+26ne128896 3.4 1010171
22:00+25e119093 0.0 1011113
18 june, fri
fri1801:00+24e1294100 3.8 101154
04:00+23ese119634 4.7 101054
07:00+24ese119478 6.3 101275
10:00+27ene128694 1.3 1013231
13:00+29w117194 1.5 1011782
16:00+27nnw1286100 3.3 1009250
19:00+26wnw1288100 3.4 1010201
22:00+25n019199 0.9 101124
19 june, sat
sat1901:00+24w1291100 4.0 101199
04:00+24s1191100 5.9 101127
07:00+24s1191100 5.9 101268
10:00+28w227331 0.0 1013752
13:00+29nw337062 0.3 1011868
16:00+29nw2271100 0.2 1010821
19:00+26wnw1283100 0.3 1011177
22:00+26wnw118798 0.0 1012175